| time (UTC) | temp F | wind direction | speed MPH | gust MPH | rain 1hr in | rain 24hr in | rain mn in | humidity % | barometer mb |
| 20260504042004 | 42 | 0 | 0.0 | 2.0 | 0.00 | 0.00 | 0.00 | 66 | 1014.4 |
| 20260504041232 | 42 | 0 | 0.0 | 0.0 | 0.00 | 0.00 | 0.00 | 66 | 1014.4 |
| 20260504040731 | 43 | 0 | 0.0 | 0.0 | 0.00 | 0.00 | 0.00 | 65 | 1014.4 |
| 20260504040229 | 43 | 0 | 0.0 | 0.0 | 0.00 | 0.00 | 0.00 | 65 | 1014.4 |
| 20260504035954 | 43 | 0 | 0.0 | 0.0 | 0.00 | 0.00 | 0.00 | 65 | 1014.4 |
| 20260504035222 | 43 | 0 | 0.0 | 0.0 | 0.00 | 0.00 | 0.00 | 65 | 1014.5 |
| 20260504034720 | 43 | 0 | 0.0 | 0.0 | 0.00 | 0.00 | 0.00 | 65 | 1014.5 |
| 20260504034220 | 43 | 0 | 0.0 | 0.0 | 0.00 | 0.00 | 0.00 | 64 | 1014.5 |
| 20260504033722 | 43 | 0 | 0.0 | 0.0 | 0.00 | 0.00 | 0.00 | 64 | 1014.5 |
| 20260504033217 | 44 | 0 | 0.0 | 0.0 | 0.00 | 0.00 | 0.00 | 64 | 1014.5 |
| 20260504032716 | 44 | 0 | 0.0 | 0.0 | 0.00 | 0.00 | 0.00 | 64 | 1014.4 |
| 20260504032216 | 44 | 0 | 0.0 | 0.0 | 0.00 | 0.00 | 0.00 | 64 | 1014.5 |
| 20260504031717 | 44 | 0 | 0.0 | 0.0 | 0.00 | 0.00 | 0.00 | 63 | 1014.5 |
| 20260504031216 | 44 | 0 | 0.0 | 0.0 | 0.00 | 0.00 | 0.00 | 63 | 1014.6 |
| 20260504030718 | 44 | 0 | 0.0 | 0.0 | 0.00 | 0.00 | 0.00 | 63 | 1014.8 |
| 20260504030213 | 45 | 0 | 0.0 | 0.0 | 0.00 | 0.00 | 0.00 | 62 | 1014.6 |
| 20260504025713 | 45 | 0 | 0.0 | 0.0 | 0.00 | 0.00 | 0.00 | 62 | 1014.6 |
| 20260504025213 | 45 | 0 | 0.0 | 0.0 | 0.00 | 0.00 | 0.00 | 62 | 1014.6 |
| 20260504024714 | 46 | 0 | 0.0 | 0.0 | 0.00 | 0.00 | 0.00 | 61 | 1014.6 |
| 20260504024213 | 46 | 0 | 0.0 | 0.0 | 0.00 | 0.00 | 0.00 | 61 | 1014.8 |
| 20260504023945 | 46 | 0 | 0.0 | 0.0 | 0.00 | 0.00 | 0.00 | 60 | 1014.8 |
| 20260504023208 | 46 | 0 | 0.0 | 0.0 | 0.00 | 0.00 | 0.00 | 61 | 1014.6 |
| 20260504022708 | 47 | 0 | 0.0 | 0.0 | 0.00 | 0.00 | 0.00 | 61 | 1014.6 |
| 20260504022213 | 47 | 0 | 0.0 | 0.0 | 0.00 | 0.00 | 0.00 | 60 | 1014.5 |
| 20260504022208 | 47 | 0 | 0.0 | 0.0 | 0.00 | 0.00 | 0.00 | 60 | 1014.5 |
| 20260504021209 | 47 | 0 | 0.0 | 0.0 | 0.00 | 0.00 | 0.00 | 60 | 1014.5 |
| 20260504020710 | 48 | 0 | 0.0 | 0.0 | 0.00 | 0.00 | 0.00 | 59 | 1014.5 |
| 20260504020204 | 48 | 0 | 0.0 | 0.0 | 0.00 | 0.00 | 0.00 | 59 | 1014.4 |
| 20260504015705 | 48 | 224 | 0.0 | 0.0 | 0.00 | 0.00 | 0.00 | 58 | 1014.5 |
| 20260504015440 | 49 | 224 | 0.0 | 0.0 | 0.00 | 0.00 | 0.00 | 57 | 1014.8 |
| 20260504015204 | 49 | 224 | 0.0 | 0.0 | 0.00 | 0.00 | 0.00 | 57 | 1014.8 |
| 20260504014202 | 49 | 224 | 0.0 | 0.0 | 0.00 | 0.00 | 0.00 | 56 | 1014.9 |
| 20260504013703 | 49 | 224 | 0.0 | 3.0 | 0.00 | 0.00 | 0.00 | 55 | 1014.9 |
| 20260504013205 | 50 | 224 | 1.0 | 3.0 | 0.00 | 0.00 | 0.00 | 55 | 1014.8 |
| 20260504012702 | 50 | 0 | 0.0 | 3.0 | 0.00 | 0.00 | 0.00 | 55 | 1014.9 |
| 20260504012202 | 50 | 227 | 0.0 | 0.0 | 0.00 | 0.00 | 0.00 | 54 | 1014.9 |
| 20260504011700 | 51 | 227 | 0.0 | 0.0 | 0.00 | 0.00 | 0.00 | 53 | 1014.9 |
| 20260504011159 | 51 | 227 | 0.0 | 0.0 | 0.00 | 0.00 | 0.00 | 52 | 1014.9 |
| 20260504010930 | 52 | 227 | 0.0 | 2.0 | 0.00 | 0.00 | 0.00 | 51 | 1014.8 |
| 20260504010156 | 52 | 227 | 0.0 | 2.0 | 0.00 | 0.00 | 0.00 | 50 | 1014.8 |
| 20260504005655 | 53 | 0 | 0.0 | 0.0 | 0.00 | 0.00 | 0.00 | 48 | 1014.9 |
| 20260504005155 | 53 | 227 | 0.0 | 0.0 | 0.00 | 0.00 | 0.00 | 47 | 1015.0 |
| 20260504004655 | 53 | 227 | 0.0 | 0.0 | 0.00 | 0.00 | 0.00 | 46 | 1015.2 |
| 20260504004425 | 54 | 227 | 0.0 | 0.0 | 0.00 | 0.00 | 0.00 | 45 | 1015.0 |
| 20260504003652 | 54 | 227 | 0.0 | 0.0 | 0.00 | 0.00 | 0.00 | 44 | 1015.1 |
| 20260504003423 | 55 | 226 | 0.0 | 0.0 | 0.00 | 0.00 | 0.00 | 43 | 1015.2 |
| 20260504002651 | 55 | 227 | 0.0 | 0.0 | 0.00 | 0.00 | 0.00 | 42 | 1015.1 |
| 20260504002151 | 55 | 226 | 0.0 | 3.0 | 0.00 | 0.00 | 0.00 | 42 | 1015.1 |
| 20260504001651 | 55 | 0 | 0.0 | 3.0 | 0.00 | 0.00 | 0.00 | 42 | 1015.2 |
| 20260504001422 | 56 | 0 | 0.0 | 2.0 | 0.00 | 0.00 | 0.00 | 41 | 1015.2 |
| 20260504000921 | 56 | 225 | 1.0 | 3.0 | 0.00 | 0.00 | 0.00 | 40 | 1015.1 |
| 20260504000146 | 56 | 0 | 1.0 | 3.0 | 0.00 | 0.00 | 0.00 | 40 | 1015.2 |
| 20260503235646 | 56 | 225 | 2.0 | 3.0 | 0.00 | 0.00 | 0.00 | 39 | 1015.2 |
| 20260503235146 | 56 | 225 | 2.0 | 5.0 | 0.00 | 0.00 | 0.00 | 39 | 1015.4 |
| 20260503234647 | 56 | 0 | 2.0 | 5.0 | 0.00 | 0.00 | 0.00 | 39 | 1015.2 |
| 20260503234146 | 57 | 269 | 2.0 | 4.0 | 0.00 | 0.00 | 0.00 | 39 | 1015.3 |
| 20260503233645 | 57 | 0 | 2.0 | 4.0 | 0.00 | 0.00 | 0.00 | 39 | 1015.3 |
| 20260503233145 | 57 | 0 | 2.0 | 5.0 | 0.00 | 0.00 | 0.00 | 38 | 1015.3 |
| 20260503232645 | 57 | 0 | 2.0 | 5.0 | 0.00 | 0.00 | 0.00 | 37 | 1015.5 |
| 20260503232143 | 57 | 227 | 2.0 | 7.0 | 0.00 | 0.00 | 0.00 | 37 | 1015.4 |
| 20260503231644 | 57 | 216 | 2.0 | 7.0 | 0.00 | 0.00 | 0.00 | 38 | 1015.4 |
| 20260503231143 | 57 | 248 | 3.0 | 10.0 | 0.00 | 0.00 | 0.00 | 37 | 1015.5 |
| 20260503230645 | 57 | 0 | 4.0 | 10.0 | 0.00 | 0.00 | 0.00 | 38 | 1015.5 |
| 20260503230415 | 58 | 0 | 3.0 | 9.0 | 0.00 | 0.00 | 0.00 | 37 | 1015.5 |
| 20260503225642 | 58 | 0 | 3.0 | 9.0 | 0.00 | 0.00 | 0.00 | 37 | 1015.6 |
| 20260503225142 | 58 | 0 | 4.0 | 11.0 | 0.00 | 0.00 | 0.00 | 38 | 1015.6 |
| 20260503224639 | 58 | 0 | 5.0 | 13.0 | 0.00 | 0.00 | 0.00 | 36 | 1015.6 |
| 20260503224412 | 58 | 0 | 4.0 | 13.0 | 0.00 | 0.00 | 0.00 | 37 | 1015.5 |
| 20260503223638 | 58 | 0 | 4.0 | 9.0 | 0.00 | 0.00 | 0.00 | 36 | 1015.6 |
| 20260503223409 | 58 | 0 | 4.0 | 11.0 | 0.00 | 0.00 | 0.00 | 39 | 1015.7 |
| 20260503222637 | 58 | 0 | 4.0 | 11.0 | 0.00 | 0.00 | 0.00 | 37 | 1015.7 |
| 20260503222135 | 58 | 0 | 2.0 | 11.0 | 0.00 | 0.00 | 0.00 | 37 | 1015.7 |
| 20260503221904 | 58 | 229 | 1.0 | 6.0 | 0.00 | 0.00 | 0.00 | 38 | 1015.7 |
| 20260503221132 | 58 | 292 | 3.0 | 8.0 | 0.00 | 0.00 | 0.00 | 36 | 1015.6 |
| 20260503220631 | 58 | 277 | 3.0 | 10.0 | 0.00 | 0.00 | 0.00 | 37 | 1015.7 |
| 20260503220128 | 59 | 0 | 5.0 | 12.0 | 0.00 | 0.00 | 0.00 | 36 | 1015.7 |
| 20260503215628 | 59 | 0 | 7.0 | 16.0 | 0.00 | 0.00 | 0.00 | 36 | 1015.7 |
| 20260503215126 | 59 | 0 | 6.0 | 16.0 | 0.00 | 0.00 | 0.00 | 36 | 1015.8 |
| 20260503214626 | 59 | 0 | 5.0 | 11.0 | 0.00 | 0.00 | 0.00 | 36 | 1015.7 |
| 20260503214125 | 59 | 0 | 6.0 | 13.0 | 0.00 | 0.00 | 0.00 | 35 | 1015.7 |
| 20260503213626 | 59 | 0 | 5.0 | 14.0 | 0.00 | 0.00 | 0.00 | 35 | 1015.8 |
| 20260503213126 | 60 | 0 | 4.0 | 14.0 | 0.00 | 0.00 | 0.00 | 37 | 1015.7 |
| 20260503212857 | 60 | 244 | 4.0 | 10.0 | 0.00 | 0.00 | 0.00 | 35 | 1015.7 |
| 20260503212125 | 60 | 0 | 4.0 | 10.0 | 0.00 | 0.00 | 0.00 | 36 | 1015.8 |
| 20260503211856 | 60 | 30 | 3.0 | 10.0 | 0.00 | 0.00 | 0.00 | 35 | 1015.7 |
| 20260503211129 | 60 | 0 | 3.0 | 10.0 | 0.00 | 0.00 | 0.00 | 35 | 1015.8 |
| 20260503210626 | 60 | 165 | 4.0 | 11.0 | 0.00 | 0.00 | 0.00 | 34 | 1015.9 |
| 20260503210125 | 61 | 0 | 4.0 | 11.0 | 0.00 | 0.00 | 0.00 | 34 | 1015.8 |
| 20260503205627 | 60 | 238 | 4.0 | 12.0 | 0.00 | 0.00 | 0.00 | 38 | 1015.9 |
| 20260503205356 | 60 | 0 | 5.0 | 12.0 | 0.00 | 0.00 | 0.00 | 33 | 1015.8 |
| 20260503204621 | 60 | 0 | 5.0 | 12.0 | 0.00 | 0.00 | 0.00 | 35 | 1016.0 |
| 20260503204120 | 60 | 0 | 5.0 | 14.0 | 0.00 | 0.00 | 0.00 | 34 | 1016.0 |
| 20260503203618 | 61 | 0 | 6.0 | 14.0 | 0.00 | 0.00 | 0.00 | 35 | 1016.0 |
| 20260503203120 | 61 | 128 | 6.0 | 13.0 | 0.00 | 0.00 | 0.00 | 33 | 1016.0 |
| 20260503202617 | 61 | 0 | 6.0 | 15.0 | 0.00 | 0.00 | 0.00 | 38 | 1016.2 |
| 20260503202119 | 61 | 0 | 6.0 | 15.0 | 0.00 | 0.00 | 0.00 | 35 | 1016.3 |
| 20260503201618 | 61 | 0 | 5.0 | 13.0 | 0.00 | 0.00 | 0.00 | 34 | 1016.2 |
| 20260503201118 | 61 | 0 | 6.0 | 14.0 | 0.00 | 0.00 | 0.00 | 34 | 1016.3 |
| 20260503200618 | 61 | 0 | 5.0 | 14.0 | 0.00 | 0.00 | 0.00 | 35 | 1016.4 |
| 20260503200116 | 60 | 0 | 4.0 | 10.0 | 0.00 | 0.00 | 0.00 | 38 | 1016.4 |
| 20260503195614 | 60 | 0 | 3.0 | 9.0 | 0.00 | 0.00 | 0.00 | 40 | 1016.5 |
| 20260503195116 | 59 | 0 | 4.0 | 11.0 | 0.00 | 0.00 | 0.00 | 37 | 1016.6 |
| 20260503194614 | 59 | 0 | 6.0 | 14.0 | 0.00 | 0.00 | 0.00 | 35 | 1016.7 |
| 20260503194114 | 59 | 190 | 4.0 | 14.0 | 0.00 | 0.00 | 0.00 | 38 | 1016.7 |
| 20260503193612 | 60 | 270 | 5.0 | 12.0 | 0.00 | 0.00 | 0.00 | 38 | 1016.9 |
| 20260503193111 | 60 | 0 | 5.0 | 12.0 | 0.00 | 0.00 | 0.00 | 33 | 1017.0 |
| 20260503192614 | 62 | 0 | 4.0 | 11.0 | 0.00 | 0.00 | 0.00 | 36 | 1017.1 |
| 20260503192112 | 61 | 305 | 4.0 | 11.0 | 0.00 | 0.00 | 0.00 | 39 | 1017.1 |
| 20260503191609 | 60 | 0 | 4.0 | 12.0 | 0.00 | 0.00 | 0.00 | 38 | 1017.1 |
| 20260503191341 | 60 | 0 | 5.0 | 12.0 | 0.00 | 0.00 | 0.00 | 38 | 1017.2 |
| 20260503190609 | 59 | 0 | 5.0 | 16.0 | 0.00 | 0.00 | 0.00 | 41 | 1017.3 |
| 20260503190106 | 58 | 275 | 5.0 | 16.0 | 0.00 | 0.00 | 0.00 | 37 | 1017.3 |
| 20260503185604 | 58 | 0 | 5.0 | 12.0 | 0.00 | 0.00 | 0.00 | 36 | 1017.2 |
| 20260503185102 | 58 | 0 | 5.0 | 12.0 | 0.00 | 0.00 | 0.00 | 37 | 1017.3 |
| 20260503184559 | 59 | 0 | 5.0 | 12.0 | 0.00 | 0.00 | 0.00 | 34 | 1017.5 |
| 20260503184059 | 59 | 0 | 4.0 | 9.0 | 0.00 | 0.00 | 0.00 | 37 | 1017.5 |
| 20260503183601 | 59 | 0 | 4.0 | 12.0 | 0.00 | 0.00 | 0.00 | 36 | 1017.6 |
| 20260503183100 | 59 | 0 | 6.0 | 12.0 | 0.00 | 0.00 | 0.00 | 40 | 1017.6 |
| 20260503182557 | 59 | 0 | 6.0 | 12.0 | 0.00 | 0.00 | 0.00 | 38 | 1017.7 |
| 20260503182056 | 58 | 0 | 4.0 | 12.0 | 0.00 | 0.00 | 0.00 | 41 | 1017.7 |
| 20260503181555 | 58 | 0 | 4.0 | 13.0 | 0.00 | 0.00 | 0.00 | 37 | 1017.7 |
| 20260503181055 | 57 | 0 | 6.0 | 15.0 | 0.00 | 0.00 | 0.00 | 40 | 1017.8 |
| 20260503180553 | 57 | 0 | 6.0 | 15.0 | 0.00 | 0.00 | 0.00 | 36 | 1017.7 |
| 20260503180051 | 56 | 0 | 7.0 | 15.0 | 0.00 | 0.00 | 0.00 | 38 | 1017.7 |
| 20260503175548 | 56 | 0 | 6.0 | 15.0 | 0.00 | 0.00 | 0.00 | 37 | 1017.8 |
| 20260503175049 | 56 | 0 | 6.0 | 15.0 | 0.00 | 0.00 | 0.00 | 37 | 1018.1 |
| 20260503174548 | 57 | 161 | 5.0 | 15.0 | 0.00 | 0.00 | 0.00 | 36 | 1018.2 |
| 20260503174048 | 57 | 324 | 4.0 | 11.0 | 0.00 | 0.00 | 0.00 | 37 | 1018.1 |
| 20260503173543 | 57 | 0 | 5.0 | 14.0 | 0.00 | 0.00 | 0.00 | 40 | 1018.3 |
| 20260503173044 | 57 | 0 | 6.0 | 14.0 | 0.00 | 0.00 | 0.00 | 40 | 1018.3 |
| 20260503172543 | 57 | 24 | 5.0 | 13.0 | 0.00 | 0.00 | 0.00 | 39 | 1018.3 |
| 20260503172045 | 57 | 0 | 3.0 | 11.0 | 0.00 | 0.00 | 0.00 | 36 | 1018.2 |
| 20260503171543 | 56 | 284 | 4.0 | 11.0 | 0.00 | 0.00 | 0.00 | 39 | 1018.2 |
| 20260503171044 | 56 | 0 | 5.0 | 12.0 | 0.00 | 0.00 | 0.00 | 38 | 1018.4 |
| 20260503170542 | 56 | 242 | 7.0 | 17.0 | 0.00 | 0.00 | 0.00 | 39 | 1018.4 |
| 20260503150531 | 51 | 0 | 4.0 | 12.0 | 0.00 | 0.00 | 0.00 | 46 | 1019.1 |
| 20260503131252 | 44 | 0 | 5.0 | 11.0 | 0.00 | 0.00 | 0.00 | 63 | 1018.9 |
| 20260503130524 | 44 | 182 | 5.0 | 11.0 | 0.00 | 0.00 | 0.00 | 63 | 1018.9 |
| 20260503110504 | 35 | 0 | 2.0 | 5.0 | 0.00 | 0.00 | 0.00 | 71 | 1017.9 |
| 20260503090440 | 36 | 206 | 1.0 | 3.0 | 0.00 | 0.00 | 0.00 | 71 | 1016.9 |
| 20260503081424 | 36 | 292 | 0.0 | 2.0 | 0.00 | 0.00 | 0.00 | 71 | 1016.8 |
| 20260503080920 | 36 | 0 | 0.0 | 2.0 | 0.00 | 0.00 | 0.00 | 71 | 1016.8 |
| 20260503080418 | 36 | 291 | 0.0 | 2.0 | 0.00 | 0.00 | 0.00 | 71 | 1016.7 |
| 20260503080150 | 36 | 0 | 0.0 | 2.0 | 0.00 | 0.00 | 0.00 | 71 | 1016.6 |
| 20260503072915 | 37 | 0 | 0.0 | 1.0 | 0.00 | 0.00 | 0.00 | 72 | 1016.5 |
| 20260503072647 | 37 | 0 | 0.0 | 1.0 | 0.00 | 0.00 | 0.00 | 72 | 1016.5 |
| 20260503071914 | 37 | 293 | 1.0 | 3.0 | 0.00 | 0.00 | 0.00 | 72 | 1016.5 |
| 20260503071415 | 37 | 292 | 1.0 | 3.0 | 0.00 | 0.00 | 0.00 | 72 | 1016.5 |
| 20260503070915 | 37 | 0 | 0.0 | 2.0 | 0.00 | 0.00 | 0.00 | 72 | 1016.4 |
| 20260503070411 | 37 | 286 | 0.0 | 0.0 | 0.00 | 0.00 | 0.00 | 72 | 1016.6 |
| 20260503054858 | 40 | 0 | 1.0 | 3.0 | 0.00 | 0.00 | 0.00 | 71 | 1016.4 |
| 20260503054356 | 40 | 0 | 1.0 | 3.0 | 0.00 | 0.00 | 0.00 | 71 | 1016.4 |
| 20260503053857 | 40 | 0 | 1.0 | 3.0 | 0.00 | 0.00 | 0.00 | 70 | 1016.5 |
| 20260503053356 | 40 | 0 | 1.0 | 4.0 | 0.00 | 0.00 | 0.00 | 70 | 1016.5 |
| 20260503052857 | 40 | 0 | 1.0 | 4.0 | 0.00 | 0.00 | 0.00 | 70 | 1016.4 |
| 20260503052356 | 40 | 0 | 1.0 | 5.0 | 0.00 | 0.00 | 0.00 | 70 | 1016.4 |
| 20260503051857 | 40 | 0 | 1.0 | 5.0 | 0.00 | 0.00 | 0.00 | 70 | 1016.5 |
| 20260503051354 | 40 | 0 | 1.0 | 3.0 | 0.00 | 0.00 | 0.00 | 70 | 1016.4 |
| 20260503050854 | 40 | 0 | 1.0 | 3.0 | 0.00 | 0.00 | 0.00 | 70 | 1016.5 |
| 20260503050355 | 40 | 0 | 1.0 | 3.0 | 0.00 | 0.00 | 0.00 | 70 | 1016.5 |
| 20260503050125 | 40 | 0 | 0.0 | 2.0 | 0.00 | 0.00 | 0.00 | 69 | 1016.5 |
| 20260503045355 | 40 | 0 | 1.0 | 3.0 | 0.00 | 0.00 | 0.00 | 69 | 1016.6 |
| 20260503044854 | 40 | 0 | 1.0 | 3.0 | 0.00 | 0.00 | 0.00 | 69 | 1016.6 |
| 20260503044356 | 40 | 0 | 1.0 | 4.0 | 0.00 | 0.00 | 0.00 | 69 | 1016.5 |
| 20260503043848 | 40 | 0 | 1.0 | 4.0 | 0.00 | 0.00 | 0.00 | 69 | 1016.7 |
| 20260503043349 | 40 | 0 | 1.0 | 4.0 | 0.00 | 0.00 | 0.00 | 69 | 1016.7 |
| 20260503042850 | 41 | 0 | 1.0 | 2.0 | 0.00 | 0.00 | 0.00 | 69 | 1016.7 |
| 20260503042347 | 41 | 0 | 0.0 | 2.0 | 0.00 | 0.00 | 0.00 | 69 | 1016.6 |
| 20260503042118 | 41 | 0 | 0.0 | 2.0 | 0.00 | 0.00 | 0.00 | 69 | 1016.6 |